DAJAN LICC-EDDE

Flight info

Callsign DAJAN
Flight time N/A
Altitude 40000
Route PEKOD T111 BUDIN DCT SUXUB DCT UTENO DCT ANC DCT AGOMO DCT BRENO M726 NARUS NARUS1V
Aircraft CL60/M-SBDE1E2E3FGHIJ1J4J5J7M3RWXYZ/LB1V1D1

Departure

Time 2026-05-04 14:17
Airport Catania-Fontanarossa Airport (LICC)

Arrival

Time N/A
Airport Erfurt-Weimar Airport (EDDE)
Time Latitude Longitude Altitude Speed Heading
2026-05-04 13:57 37.46854 15.06042 45 ft 0 kts 24°
2026-05-04 14:12 37.46860 15.06050 45 ft 2 kts 75°
2026-05-04 14:13 37.46850 15.06059 44 ft 4 kts 185°
2026-05-04 14:13 37.46808 15.06046 44 ft 7 kts 202°
2026-05-04 14:13 37.46788 15.05980 47 ft 9 kts 264°
2026-05-04 14:13 37.46782 15.05901 50 ft 9 kts 261°
2026-05-04 14:14 37.46773 15.05814 53 ft 10 kts 264°
2026-05-04 14:14 37.46757 15.05603 59 ft 11 kts 264°
2026-05-04 14:14 37.46737 15.05503 60 ft 12 kts 231°
2026-05-04 14:15 37.46690 15.05468 60 ft 1 kts 192°
2026-05-04 14:15 37.46607 15.05486 60 ft 10 kts 150°
2026-05-04 14:16 37.46603 15.05743 55 ft 69 kts 85°
2026-05-04 14:16 37.46692 15.06778 87 ft 157 kts 88°
2026-05-04 14:17 37.46984 15.09895 1393 ft 217 kts 81°
2026-05-04 14:17 37.47266 15.11942 2278 ft 249 kts 79°
2026-05-04 14:17 37.47851 15.16202 4958 ft 260 kts 80°
2026-05-04 14:18 37.48159 15.18450 6223 ft 267 kts 80°
2026-05-04 14:18 37.48785 15.23043 8796 ft 277 kts 79°
2026-05-04 14:19 37.49621 15.27777 11264 ft 285 kts 62°
2026-05-04 14:19 37.50775 15.29767 12311 ft 291 kts 39°
2026-05-04 14:19 37.52489 15.31269 12842 ft 318 kts 29°
2026-05-04 14:19 37.54425 15.32769 13676 ft 334 kts 30°
2026-05-04 14:20 37.56403 15.34318 14692 ft 341 kts 29°
2026-05-04 14:20 37.58420 15.35900 15742 ft 346 kts 29°
2026-05-04 14:20 37.60473 15.37509 16747 ft 351 kts 28°
2026-05-04 14:21 37.64651 15.40789 18616 ft 360 kts 28°
2026-05-04 14:21 37.66788 15.42467 19510 ft 365 kts 28°
2026-05-04 14:21 37.68962 15.44100 20321 ft 367 kts 22°
2026-05-04 14:21 37.71346 15.45069 21128 ft 362 kts
2026-05-04 14:22 37.73837 15.45052 21940 ft 358 kts 347°
2026-05-04 14:22 37.76187 15.44123 22677 ft 358 kts 336°
2026-05-04 14:22 37.78516 15.42962 23441 ft 362 kts 336°
2026-05-04 14:22 37.80848 15.41810 24217 ft 365 kts 336°
2026-05-04 14:23 37.85646 15.39433 25740 ft 368 kts 336°